Location: Mount Wilson Observatory
(34.2257°N, 118.0571°W)
Time: 18:37:44
(UTC-07:00)

ATLAS 3B CENTAUR R/B - Visible Passes

Search period start: 22 October 2014 00:00
Search period end: 01 November 2014 00:00
Orbit: 231 x 8358 km, 28.1° (Epoch: 22 October)

Date Brightness Start Highest point End Pass type
(mag) Time Alt. Az. Time Alt. Az. Time Alt. Az.
22 Oct 4.6 18:11:08 10° WSW 18:45:39 65° S 18:54:37 11° E visible
22 Oct 4.7 21:50:58 10° W 21:57:27 26° WSW 21:57:27 26° WSW visible
23 Oct 4.3 18:38:17 10° WSW 19:09:50 67° S 19:16:59 18° ESE visible
23 Oct 5.1 22:16:13 10° W 22:19:46 18° WSW 22:19:46 18° WSW visible
24 Oct 4.0 19:04:53 10° W 19:33:26 67° S 19:38:56 26° ESE visible
24 Oct 5.5 22:41:03 10° W 22:41:39 11° W 22:41:39 11° W visible
25 Oct 3.7 19:30:49 10° W 19:56:27 65° S 20:00:26 35° ESE visible
26 Oct 3.6 19:56:02 10° W 20:18:52 61° SSW 20:21:31 45° SE visible
27 Oct 3.6 20:20:31 10° W 20:40:42 55° SSW 20:42:10 50° S visible
28 Oct 3.8 20:44:16 10° W 21:01:55 47° SSW 21:02:24 47° SSW visible
29 Oct 4.2 21:07:22 10° W 21:22:12 39° SW 21:22:12 39° SW visible
30 Oct 5.0 17:43:59 10° W 18:27:17 73° S 18:38:30 10° ESE visible
30 Oct 4.6 21:29:53 10° W 21:41:35 30° SW 21:41:35 30° SW visible
31 Oct 4.9 18:07:28 10° W 18:47:54 71° S 18:58:12 11° ESE visible
31 Oct 5.0 21:51:56 10° W 22:00:33 23° WSW 22:00:33 23° WSW visible
